Date String (YYYY-MM-DD hh:mm:ss) UTC,Instrument flags,Ambient pressure (hPa),Sample flow (lpm),Bypass flow (lpm),Sample temperature (°C),Ambient temperature (°C),ASC tube jacket temperature (°C),LED temperature (°C),Box temperature (°C),Sample RH (%),Span deviation,Mass concentration (μg/m³),Mass concentration (μg/m³),Mass concentration (μg/m³)
DateTimeUTC,F1_M11,P_M11,Q1_M11,Q2_M11,T1_M11,T2_M11,T3_M11,T4_M11,T5_M11,U1_M11,ZSPAN_M11,X0_M11,X2_M11,X1_M11
2022-09-09 02:00:00,,0822.4,5.00,0.00,29.7,28.8,00.0,38.3,31.6,18.9,0002.9,0016.55,0009.53,0008.24
2022-09-09 02:01:00,,0822.4,4.99,0.00,29.7,27.9,00.0,38.3,31.6,18.8,0002.9,0016.38,0009.44,0008.23
2022-09-09 02:02:00,,0822.3,5.01,0.00,29.6,26.6,00.0,38.3,31.4,18.8,0002.6,0016.41,0009.38,0008.22
2022-09-09 02:03:00,,0822.3,5.00,0.00,29.6,26.2,00.0,38.2,31.3,18.7,0002.4,0016.05,0009.37,0008.20
2022-09-09 02:04:00,,0822.2,5.00,0.00,29.5,26.5,00.0,38.2,31.2,18.7,0002.1,0016.08,0009.35,0008.15
2022-09-09 02:05:00,,0822.2,5.00,0.00,29.4,26.8,00.0,38.2,31.2,18.7,0002.2,0016.69,0009.34,0008.11
2022-09-09 02:06:00,,0822.2,4.99,0.00,29.4,27.1,00.0,38.2,31.2,18.8,0002.6,0016.86,0009.30,0008.06
2022-09-09 02:07:00,,0822.2,5.01,0.00,29.4,27.5,00.0,38.2,31.3,18.8,0002.7,0017.14,0009.25,0008.00
2022-09-09 02:08:00,,0822.2,5.00,0.00,29.4,27.8,00.0,38.2,31.3,18.8,0003.3,0017.27,0009.18,0007.95
2022-09-09 02:09:00,,0822.2,5.01,0.00,29.5,28.0,00.0,38.2,31.4,18.8,0002.9,0017.38,0009.11,0007.90
2022-09-09 02:10:00,,0822.2,4.99,0.00,29.5,28.2,00.0,38.2,31.4,18.8,0002.3,0016.83,0009.07,0007.88
2022-09-09 02:11:00,,0822.3,5.01,0.00,29.5,28.4,00.0,38.2,31.4,19.1,0000.2,0017.04,0009.11,0007.86
2022-09-09 02:12:00,,0822.3,5.01,0.00,29.6,28.5,00.0,38.2,31.5,18.9,0000.0,0017.05,0009.17,0007.84
2022-09-09 02:13:00,,0822.3,4.98,0.00,29.6,28.6,00.0,38.3,31.5,18.8,0000.0,0016.67,0009.21,0007.81
2022-09-09 02:14:00,,0822.3,5.01,0.00,29.6,28.7,00.0,38.3,31.6,18.8,0000.0,0016.93,0009.22,0007.80
2022-09-09 02:15:00,,0822.3,5.00,0.00,29.7,28.8,00.0,38.3,31.7,18.5,0000.0,0017.56,0009.23,0007.82
2022-09-09 02:16:00,,0822.3,5.00,0.00,29.7,27.9,00.0,38.3,31.6,18.4,0000.0,0017.36,0009.21,0007.83
2022-09-09 02:17:00,,0822.3,4.99,0.00,29.7,26.5,00.0,38.3,31.4,18.3,0000.0,0017.73,0009.20,0007.85
2022-09-09 02:18:00,,0822.3,5.01,0.00,29.6,26.2,00.0,38.2,31.4,18.4,0000.9,0017.16,0009.16,0007.87
2022-09-09 02:19:00,,0822.4,5.00,0.00,29.5,26.5,00.0,38.2,31.3,18.5,0001.6,0017.06,0009.18,0007.90
2022-09-09 02:20:00,,0822.4,5.01,0.00,29.5,26.9,00.0,38.2,31.2,18.6,0001.3,0016.54,0009.21,0007.92
2022-09-09 02:21:00,,0822.4,5.00,0.00,29.5,27.3,00.0,38.2,31.2,18.8,0001.4,0016.57,0009.24,0007.94
2022-09-09 02:22:00,,0822.4,5.00,0.00,29.5,27.6,00.0,38.2,31.3,18.7,0001.6,0016.32,0009.21,0007.95
2022-09-09 02:23:00,,0822.5,5.00,0.00,29.5,27.8,00.0,38.2,31.3,18.7,0001.1,0016.09,0009.16,0007.97
2022-09-09 02:24:00,,0822.5,5.01,0.00,29.5,28.1,00.0,38.2,31.4,18.8,0001.0,0016.08,0009.16,0007.99
2022-09-09 02:25:00,,0822.6,5.00,0.00,29.5,28.3,00.0,38.2,31.4,19.0,0001.0,0015.62,0009.12,0008.00
2022-09-09 02:26:00,,0822.6,5.00,0.00,29.5,28.4,00.0,38.2,31.5,18.9,0001.1,0015.07,0009.09,0007.99
2022-09-09 02:27:00,,0822.6,5.00,0.00,29.6,28.5,00.0,38.2,31.5,18.9,0001.0,0014.64,0009.09,0007.99
2022-09-09 02:28:00,,0822.6,5.00,0.00,29.6,28.6,00.0,38.3,31.6,19.0,0000.6,0014.18,0009.10,0007.98
2022-09-09 02:29:00,,0822.6,5.01,0.00,29.7,28.7,00.0,38.3,31.6,18.8,0000.8,0014.22,0009.10,0007.99
2022-09-09 02:30:00,,0822.7,4.99,0.00,29.7,28.8,00.0,38.3,31.7,18.6,0000.5,0014.22,0009.10,0007.98
2022-09-09 02:31:00,,0822.6,5.01,0.00,29.7,28.5,00.0,38.3,31.7,18.5,0000.5,0015.79,0009.12,0007.98
2022-09-09 02:32:00,,0822.6,4.99,0.00,29.7,27.1,00.0,38.3,31.5,18.6,0000.6,0016.33,0009.13,0007.99
2022-09-09 02:33:00,,0822.6,5.01,0.00,29.6,26.2,00.0,38.3,31.4,18.6,0000.4,0017.16,0009.17,0007.98
2022-09-09 02:34:00,,0822.5,4.99,0.00,29.6,26.4,00.0,38.2,31.4,18.7,0000.3,0017.69,0009.20,0007.97
2022-09-09 02:35:00,,0822.6,5.00,0.00,29.5,26.7,00.0,38.2,31.2,18.9,0000.1,0018.53,0009.19,0007.94
2022-09-09 02:36:00,,0822.6,5.00,0.00,29.5,27.1,00.0,38.2,31.2,19.1,-000.0,0019.06,0009.20,0007.93
2022-09-09 02:37:00,,0822.6,5.01,0.00,29.5,27.4,00.0,38.2,31.3,19.5,-000.2,0019.46,0009.17,0007.91
2022-09-09 02:38:00,,0822.6,5.00,0.00,29.5,27.7,00.0,38.2,31.3,20.3,-000.3,0020.33,0009.18,0007.89
2022-09-09 02:39:00,,0822.6,5.01,0.00,29.5,27.9,00.0,38.2,31.4,20.3,0000.0,0020.49,0009.20,0007.89
2022-09-09 02:40:00,,0822.6,5.01,0.00,29.5,28.1,00.0,38.2,31.4,20.1,0000.0,0020.72,0009.25,0007.89
2022-09-09 02:41:00,,0822.6,5.01,0.00,29.5,28.3,00.0,38.2,31.5,19.7,0000.5,0021.30,0009.28,0007.89
2022-09-09 02:42:00,,0822.6,4.99,0.00,29.6,28.4,00.0,38.3,31.5,19.7,0000.6,0020.18,0009.34,0007.89
2022-09-09 02:43:00,,0822.6,5.01,0.00,29.6,28.6,00.0,38.3,31.5,19.7,0000.3,0020.63,0009.34,0007.88
2022-09-09 02:44:00,,0822.6,4.99,0.00,29.7,28.7,00.0,38.3,31.6,19.7,0000.6,0020.12,0009.33,0007.89
2022-09-09 02:45:00,,0822.7,5.01,0.00,29.7,28.8,00.0,38.3,31.7,19.7,0000.9,0019.90,0009.33,0007.91
2022-09-09 02:46:00,,0822.7,4.98,0.00,29.7,28.8,00.0,38.4,31.7,19.7,0001.2,0019.85,0009.34,0007.92
2022-09-09 02:47:00,,0822.7,5.00,0.00,29.7,27.8,00.0,38.4,31.6,19.7,0001.6,0019.61,0009.37,0007.94
2022-09-09 02:48:00,,0822.7,5.01,0.00,29.7,26.5,00.0,38.3,31.4,19.9,0002.0,0019.37,0009.44,0007.96
2022-09-09 02:49:00,,0822.8,4.99,0.00,29.6,26.3,00.0,38.3,31.4,19.9,0002.4,0019.28,0009.44,0008.00
2022-09-09 02:50:00,,0822.8,4.99,0.00,29.6,26.5,00.0,38.3,31.3,20.1,0002.6,0019.30,0009.44,0008.02
2022-09-09 02:51:00,,0822.8,4.99,0.00,29.5,26.9,00.0,38.2,31.2,20.2,0003.0,0019.48,0009.43,0008.03
2022-09-09 02:52:00,,0822.8,5.00,0.00,29.5,27.2,00.0,38.2,31.2,20.3,0003.1,0018.98,0009.47,0008.02
2022-09-09 02:53:00,,0822.7,5.00,0.00,29.5,27.6,00.0,38.2,31.3,20.4,0002.9,0018.74,0009.42,0008.01
2022-09-09 02:54:00,,0822.7,5.01,0.00,29.5,27.8,00.0,38.2,31.3,20.6,0000.0,0018.54,0009.46,0008.03
2022-09-09 02:55:00,,0822.8,5.01,0.00,29.5,28.1,00.0,38.2,31.4,20.7,0000.0,0018.44,0009.46,0008.04
2022-09-09 02:56:00,,0822.8,5.01,0.00,29.5,28.2,00.0,38.2,31.4,20.9,0000.0,0018.14,0009.43,0008.04
2022-09-09 02:57:00,,0822.8,5.01,0.00,29.5,28.4,00.0,38.3,31.5,20.8,0000.0,0017.67,0009.49,0008.06
2022-09-09 02:58:00,,0822.8,4.98,0.00,29.6,28.5,00.0,38.3,31.5,20.9,0000.0,0017.54,0009.50,0008.08
2022-09-09 02:59:00,,0822.8,5.02,0.00,29.6,28.6,00.0,38.3,31.5,21.0,0000.0,0017.57,0009.51,0008.10
